Theta_e
325 329 332 329 328 326 328 329 330 326 323 326 327 325 316 314 314 314 316 321 322 322 317 318 324 327 328 328 326 325 323 321 321 320 319 319 318 318 318 316 315 314 313 312
327 326 327 327 328 327 329 331 328 327 324 325 322 324 317 314 313 312 312 314 319 315 313 314 320 325 326 324 323 322 322 323 322 320 319 318 318 317 316 315 313 312 312 312
327 324 324 329 330 330 330 331 326 328 324 321 320 323 317 312 311 309 309 311 311 312 312 310 312 316 320 321 322 323 324 324 322 319 317 317 317 317 314 313 313 312 312 311
319 318 327 327 329 329 333 327 326 326 328 331 322 332 324 315 311 310 310 308 309 310 310 309 309 310 313 314 315 316 317 318 318 318 318 317 317 316 313 311 308 306 306 306
317 318 328 329 327 326 330 325 326 326 328 326 324 327 326 315 313 311 309 308 308 309 308 307 308 309 309 310 311 311 312 312 312 312 313 312 311 309 305 300 298 296 296 296
315 314 315 320 320 322 320 321 320 321 325 329 327 327 329 314 317 313 309 309 309 307 306 306 307 307 306 307 307 306 306 305 305 304 303 301 300 297 296 295 294 294 294 293
316 316 314 313 321 319 321 325 326 328 327 331 317 326 330 318 311 312 311 310 307 306 306 305 304 304 303 303 302 300 299 298 297 297 297 296 295 294 294 293 292 292 292 292
322 321 315 312 315 322 322 323 328 332 326 322 316 325 326 315 313 309 309 309 307 307 306 304 303 302 302 301 299 297 297 296 296 295 295 294 294 293 292 292 292 291 291 291
319 318 312 312 312 315 318 322 315 316 309 313 314 311 306 307 308 309 309 309 308 306 303 302 301 301 301 299 297 297 296 295 295 294 293 292 292 292 292 291 291 291 291 291
314 317 313 313 313 313 316 313 321 318 322 320 315 308 312 309 309 309 309 309 307 304 302 301 300 300 299 298 296 294 294 294 293 293 292 292 292 292 291 291 291 291 291 291
314 315 315 314 316 317 316 316 315 317 318 322 321 320 304 305 307 310 308 308 305 302 301 300 299 300 299 297 295 295 294 293 292 292 292 292 292 291 291 291 292 292 292 291
314 313 317 315 306 311 312 315 315 322 320 314 309 307 304 303 304 308 307 305 302 302 300 299 299 299 297 296 295 294 294 294 292 292 292 292 292 292 292 292 292 292 291 291
310 308 309 314 312 306 314 313 315 312 308 310 309 307 304 304 306 308 307 304 302 300 299 298 298 297 295 295 294 294 294 295 293 292 292 292 292 292 292 292 292 292 291 291
305 306 312 314 313 308 308 310 312 315 313 311 308 306 305 306 307 306 305 302 301 301 299 298 298 297 296 295 295 294 294 295 294 293 292 292 292 292 291 291 291 290 290 290
303 301 303 305 305 306 307 308 311 314 313 311 310 308 309 305 305 305 304 302 302 301 298 299 298 297 297 296 295 295 294 294 294 294 293 292 291 291 291 291 290 290 289 288
300 299 300 295 303 302 302 304 305 310 312 312 312 312 309 303 304 304 304 303 303 302 301 299 298 297 297 297 296 295 294 294 294 294 293 292 291 291 291 290 289 288 287 286
299 297 292 296 294 293 295 300 303 305 305 309 311 311 306 306 304 303 302 302 303 303 301 299 298 298 298 299 299 296 295 294 293 293 293 291 291 290 289 289 287 286 285 285
290 288 283 291 286 293 298 298 299 302 302 303 304 303 304 305 303 302 301 302 302 302 301 300 299 298 299 300 299 296 294 293 293 293 291 290 290 289 288 287 285 285 284 284
296 294 287 293 282 294 299 295 296 298 297 298 300 301 300 300 301 301 299 300 302 301 300 300 299 299 299 299 297 294 293 294 292 291 290 289 288 287 285 284 284 284 283 283
296 292 291 278 288 291 296 296 295 296 294 295 296 296 295 298 300 299 298 298 299 299 300 298 297 298 298 297 295 294 293 291 290 290 289 288 286 285 284 283 283 283 282 282
300 289 288 284 284 291 292 295 294 292 296 294 294 293 295 297 298 297 296 297 298 297 296 297 297 297 296 295 295 292 291 290 289 289 288 286 284 284 283 283 283 282 281 280
299 297 287 278 288 298 292 294 294 294 294 294 294 293 296 295 294 295 295 295 293 293 294 295 293 292 293 293 293 291 290 289 288 287 286 284 284 283 283 282 282 281 279 279
300 295 296 294 297 293 291 294 293 292 294 295 294 294 294 295 296 294 293 293 292 292 291 292 292 291 291 292 292 290 288 288 287 285 283 283 283 283 282 281 279 279 278 278
292 287 292 294 295 294 293 293 292 292 292 293 292 293 294 295 294 294 292 290 290 291 291 291 290 289 288 289 289 289 288 286 284 283 283 283 282 282 281 280 278 278 277 278
293 294 292 293 297 297 295 294 295 294 292 291 291 292 292 293 293 292 291 289 289 290 291 291 290 289 288 288 288 286 285 283 283 283 282 282 281 280 279 279 278 278 278 279
289 295 299 300 299 299 299 296 295 294 295 294 291 288 287 291 291 292 290 289 289 289 290 290 289 289 288 287 285 284 283 283 283 282 281 280 279 278 277 278 280 279 278 278
Wind_Speed
6 2 8 12 5 5 8 11 5 2 8 5 12 6 6 1 3 6 7 7 7 7 2 5 7 9 11 9 10 12 10 8 9 9 8 8 8 5 3 5 8 9 11 12
5 12 10 10 7 6 14 12 6 3 7 4 5 11 6 6 4 6 7 8 8 4 3 2 5 9 9 9 10 10 10 8 8 8 4 2 1 2 6 6 7 8 10 12
9 2 3 11 9 9 10 16 7 6 5 2 2 6 4 4 3 3 5 6 4 7 6 4 6 9 10 9 8 8 7 7 6 6 6 3 1 2 2 6 8 10 11 11
6 3 7 14 9 8 6 2 10 15 9 4 5 4 7 11 7 6 8 7 7 7 4 4 7 9 10 10 9 7 7 6 5 4 4 3 2 1 4 6 8 8 9 10
1 5 8 20 11 5 4 5 9 8 10 4 5 3 3 5 10 12 13 10 8 7 7 7 11 12 11 11 11 10 9 8 7 6 6 6 6 4 3 4 5 8 9 9
4 3 4 3 6 5 9 9 7 4 2 4 7 10 5 6 14 14 7 12 10 8 7 7 13 15 15 15 15 14 14 14 11 10 10 10 9 7 4 5 8 9 10 10
7 4 2 4 9 3 1 6 2 2 3 4 2 6 10 6 8 8 15 10 9 9 9 7 10 15 16 16 16 16 15 15 12 11 10 8 7 5 4 6 7 10 12 14
3 2 7 6 4 2 3 1 4 6 4 2 2 7 5 5 5 6 9 13 11 10 9 8 12 17 17 17 17 16 14 14 10 8 7 6 4 3 3 5 7 9 12 14
4 3 0 4 3 4 3 2 2 4 2 2 4 6 9 3 5 6 10 13 15 12 10 9 13 17 18 18 16 14 12 10 9 7 5 4 3 3 4 5 8 11 14 17
1 5 3 2 1 8 3 5 3 1 4 4 4 5 5 4 6 6 12 16 14 12 10 9 13 18 18 18 17 14 11 10 8 6 4 2 1 3 6 8 11 14 17 20
3 2 2 0 2 4 2 2 3 2 1 2 3 5 5 6 8 12 11 13 14 12 11 10 14 21 21 19 18 15 11 9 7 5 3 1 2 5 8 11 14 17 21 22
2 4 3 1 3 1 3 3 3 3 3 3 1 6 1 7 7 9 8 8 9 10 10 9 17 22 22 22 20 16 12 8 6 4 3 3 6 8 12 15 17 19 23 24
5 0 3 1 1 3 3 5 3 1 1 5 4 5 2 5 6 5 9 10 11 10 9 7 11 17 23 23 20 17 13 9 5 4 5 6 8 11 14 17 20 22 24 26
2 2 3 4 3 4 4 6 10 5 2 2 5 6 6 3 4 7 7 8 10 10 10 10 7 13 23 23 21 19 15 10 7 5 6 9 11 14 17 21 23 24 26 28
2 4 1 0 1 1 2 4 11 10 11 5 2 10 13 4 7 8 7 7 10 13 10 12 11 11 21 22 21 19 17 13 9 8 9 10 13 17 19 22 24 26 27 29
2 1 2 3 3 2 3 6 8 16 17 18 18 23 14 7 3 6 11 13 14 15 16 14 11 15 20 25 24 21 17 13 12 10 10 11 14 17 20 22 25 27 29 32
4 5 3 5 3 3 5 12 16 7 6 11 13 21 4 6 11 10 9 12 16 17 17 14 15 20 24 29 24 21 17 13 10 9 10 12 14 18 20 23 26 29 31 33
4 5 3 3 4 2 7 4 5 15 12 13 12 11 5 7 8 7 9 14 16 15 15 15 17 20 25 23 20 15 13 10 8 8 9 11 14 17 21 24 27 30 32 32
2 4 2 4 4 7 7 2 6 7 7 5 16 18 11 3 1 11 8 9 14 15 13 21 25 26 25 20 16 16 13 9 8 6 8 11 14 18 21 25 28 30 30 30
4 5 4 3 4 6 6 1 3 2 4 4 2 7 7 6 5 3 5 8 12 12 16 18 20 19 19 19 19 17 13 8 3 4 8 11 14 17 21 22 25 27 27 25
3 2 5 2 2 8 8 4 4 6 6 1 2 5 3 4 5 4 6 2 3 7 12 16 19 23 23 22 20 15 10 5 1 4 7 10 13 16 17 21 24 27 26 24
8 7 4 3 3 8 7 5 6 6 3 2 2 5 5 6 9 7 6 2 6 8 13 16 22 24 23 22 18 14 9 5 2 3 7 10 12 15 18 20 24 26 26 21
4 7 6 9 6 4 7 6 3 3 3 2 2 4 4 4 5 6 4 3 3 10 16 21 28 26 20 17 13 13 9 5 1 4 6 9 12 15 18 21 23 24 22 19
4 4 3 3 6 10 9 6 5 5 6 5 5 5 1 4 5 7 2 2 4 11 17 24 27 24 19 14 11 10 9 5 3 4 7 10 13 16 17 18 20 21 19 20
3 7 7 5 9 4 8 9 7 9 7 8 4 6 7 5 5 5 4 5 8 13 17 25 25 23 20 16 13 9 7 5 5 6 8 11 12 14 15 17 16 17 18 17
5 7 6 6 6 4 5 3 4 6 7 6 7 4 6 6 6 2 4 6 13 16 19 19 19 20 19 16 13 10 6 5 5 8 9 9 10 12 14 17 18 16 14 15
Wind_Direction
117 215 190 179 181 125 153 181 140 156 166 158 207 239 240 164 151 232 240 232 230 230 259 253 239 234 226 227 215 201 199 203 211 218 228 253 268 289 313 351 350 354 343 337
128 233 195 162 156 149 161 169 151 70 132 205 183 230 199 192 199 194 215 231 224 197 152 132 164 172 172 174 174 177 191 204 221 228 229 226 240 344 8 8 3 339 333 335
183 41 128 167 161 175 190 185 171 139 133 68 64 285 199 212 206 192 235 226 217 203 178 135 130 137 143 143 151 170 183 205 218 220 228 243 315 5 14 338 330 329 327 333
77 315 188 185 205 202 185 132 161 141 145 208 179 269 226 193 207 206 217 217 207 190 165 144 144 139 139 138 142 138 135 138 142 138 149 147 129 128 335 335 348 354 354 346
266 7 167 178 184 180 229 127 147 162 175 135 184 267 218 188 210 215 213 211 200 189 181 163 154 144 136 135 135 135 135 127 118 123 119 118 116 98 76 29 13 11 8 359
51 359 29 36 71 90 122 86 58 67 89 249 179 198 205 181 209 219 200 203 179 167 158 150 141 137 130 130 128 126 123 110 108 107 104 102 100 90 69 27 8 2 353 351
5 21 5 6 86 51 30 122 91 131 187 239 322 219 255 241 234 213 207 185 159 156 150 162 150 147 139 134 132 129 123 114 111 108 106 103 98 79 45 20 5 355 348 350
127 104 10 348 37 158 142 119 173 186 195 185 10 235 241 254 212 201 179 164 149 156 164 168 164 154 146 142 140 136 130 122 124 123 122 119 110 80 40 15 2 349 344 342
131 83 282 50 29 357 166 114 20 90 46 61 214 278 281 237 240 175 155 154 163 170 169 166 166 159 153 151 147 146 144 143 140 133 132 117 88 55 21 4 347 341 340 334
133 110 31 62 50 36 34 138 110 55 151 247 265 279 248 274 240 188 176 172 168 167 160 163 166 167 164 159 156 154 154 152 148 141 137 126 36 355 346 340 335 334 333 331
95 71 71 5 182 161 126 138 75 105 169 233 301 261 210 270 220 199 187 177 170 165 167 167 172 174 170 170 171 168 162 148 148 156 175 235 322 331 328 331 334 333 331 329
109 99 112 89 38 62 99 167 155 159 195 224 294 279 282 281 246 160 170 165 168 171 169 171 174 175 177 181 183 184 174 163 166 192 235 288 315 324 329 327 328 329 327 327
180 281 103 139 269 24 209 172 195 13 121 212 159 258 359 19 82 151 167 166 171 169 169 172 168 180 187 191 192 193 190 184 186 223 265 297 318 320 319 319 323 324 326 328
115 122 183 185 170 126 196 183 188 185 197 202 222 284 268 84 165 191 181 168 173 185 184 181 184 192 199 198 199 201 202 198 205 242 277 297 311 318 320 324 325 327 328 327
113 193 149 286 108 183 219 188 185 204 220 231 170 232 265 202 205 210 193 169 181 195 187 190 194 196 203 204 207 208 209 208 218 244 271 297 320 321 322 324 325 325 327 329
36 261 94 302 306 273 263 235 205 217 233 244 253 270 251 230 180 185 192 184 196 203 205 198 194 195 200 207 209 210 210 211 227 246 277 305 314 315 319 322 326 328 333 336
144 137 93 264 353 352 317 220 208 201 220 215 223 240 139 242 232 221 204 196 205 207 203 194 196 202 203 209 208 211 209 212 225 250 278 300 313 317 323 327 330 334 337 338
128 97 80 225 16 335 239 175 189 216 242 226 265 270 203 240 245 239 205 197 210 209 205 202 197 198 208 206 206 203 193 196 215 250 279 307 316 323 330 333 336 338 340 340
42 118 95 147 194 300 293 149 162 172 280 238 238 261 278 239 168 254 211 211 215 207 204 203 198 196 200 192 188 177 176 186 217 258 308 323 332 334 337 339 339 340 342 343
48 61 118 80 143 209 240 181 204 147 308 14 287 285 289 176 220 264 221 199 211 202 193 184 181 178 174 174 172 168 172 190 228 311 329 335 339 341 341 339 342 344 347 342
139 30 158 154 224 287 242 152 161 89 234 300 283 282 294 205 225 281 329 178 187 170 162 170 165 164 166 161 160 156 166 169 223 310 325 340 345 344 345 347 351 350 351 348
164 151 183 89 83 272 157 99 162 207 216 233 300 311 332 258 308 312 333 97 141 135 151 156 142 142 149 155 161 159 158 166 209 323 352 351 353 357 357 357 358 358 0 355
195 182 177 185 207 249 223 218 207 147 192 240 273 320 309 283 265 321 346 49 95 137 140 147 141 141 150 155 162 151 156 172 174 21 11 7 6 11 10 9 7 5 5 2
257 163 162 91 250 230 246 266 227 213 229 235 218 251 243 276 272 259 334 127 135 143 144 150 147 145 145 151 154 156 160 159 105 64 36 22 20 21 19 19 19 13 6 3
199 143 169 269 277 296 249 229 244 240 236 258 251 224 231 235 264 239 216 186 180 169 160 161 157 154 154 157 151 152 150 128 96 64 47 41 37 34 32 31 26 18 18 8
188 184 177 213 213 183 258 159 190 227 249 230 216 264 241 222 243 232 245 201 173 169 167 165 161 157 156 158 152 149 139 121 97 80 62 59 54 55 51 42 33 48 34 32